Regional Weather Roundup
Issued by NWS Mt. Holly, NJ

Current Version | Previous Version | Text Only | Print | Product List | Glossary Off
Versions: 1 2 3 4 5 6 7 8 9 10 11 12 13 14 15 16 17 18 19 20 21 22 23 24 25 26 27 28 29 30 31 32 33 34 35 36 37 38 39 40 41 42 43 44 45 46 47 48 49 50

000
ASUS41 KPHI 301612
RWRPHI

REGIONAL WEATHER ROUNDUP
NATIONAL WEATHER SERVICE MOUNT HOLLY NJ
1200 PM EDT MON MAR 30 2015

NOTE:  "FAIR" INDICATES FEW OR NO CLOUDS BELOW 12,000 FEET WITH NO
SIGNIFICANT WEATHER AND/OR OBSTRUCTIONS TO VISIBILITY.

 * = STATION DOES NOT REPORT PRECIPITATION (E.G. RAIN, SNOW, ETC.)
        OR FOG.

NJZ015>026-301700-
SOUTHERN NEW JERSEY

CITY           SKY/WX    TMP DP  RH WIND       PRES   REMARKS
POMONA         CLOUDY    45  31  58 SW18G24   29.89F
RIO GRANDE*    CLOUDY   N/A N/A N/A SW15G22   29.90F
MILLVILLE      CLOUDY    45  31  58 SW8G17    29.89F
WRIGHTSTOWN    CLOUDY    44  32  63 SW17      29.84F
MOUNT HOLLY    CLOUDY    44  30  57 SW15G23   29.87F
TRENTON        PTSUNNY   47  31  53 SW14G21   29.84F

$$
NJZ001>014-301700-
NORTHERN NEW JERSEY

CITY           SKY/WX    TMP DP  RH WIND       PRES   REMARKS
SUSSEX         MOSUNNY   42  29  59 SW13G21   29.79F
ANDOVER*         N/A     44  29  55 SW10G18   29.80F
MORRISTOWN     PTSUNNY   43  30  61 W14G21    29.83F
NEWARK         CLOUDY    44  33  65 SW18      29.84F
TETERBORO      CLOUDY    42  30  62 SW17      29.82F
CALDWELL       CLOUDY    42  28  57 SW12G17   29.82F
SOMERVILLE     CLOUDY    45  29  53 VRB7G16   29.83F
ALLAIRE*       CLOUDY    43  28  56 SW13G20   29.86F
TOMS RIVER*    CLOUDY    45  30  57 SW3G16    29.86F

$$
PAZ043-044-047-054-055-060>062-066>071-301700-
EASTERN PENNSYLVANIA

CITY           SKY/WX    TMP DP  RH WIND       PRES   REMARKS
PHILADELPHIA   PTSUNNY   48  29  47 SW17      29.87F
NORTH PHILA    PTSUNNY   49  27  42 SW15G25   29.87F
BLUE BELL      CLOUDY    50  32  50 SW9G18    29.84F
DOYLESTOWN     CLOUDY    45  29  53 SW13G20   29.83F
QUAKERTOWN*    CLOUDY    46  28  49 W9        29.83F
POTTSTOWN      PTSUNNY   48  30  49 W14G21    29.85F
LANCASTER      PTSUNNY   49  31  49 W14       29.85S
COATESVILLE    CLOUDY    48  30  49 W9        29.85F
READING        MOSUNNY   50  30  46 W13G26    29.83F
ALLENTOWN      PTSUNNY   49  30  48 W13G20    29.82F
MOUNT POCONO   CLOUDY    38  29  70 W20G31    29.75S WCI  28
HAZLETON       CLOUDY    43  32  65 W10G26    29.80F
WILKES BARRE   CLOUDY    44  32  62 W18G26    29.78S

$$
DEZALL-MDZ008-012-015-019-020-301700-
DELAWARE AND EASTERN MARYLAND

CITY           SKY/WX    TMP DP  RH WIND       PRES   REMARKS
WILMINGTON     CLOUDY    50  24  36 SW18      29.88F
DOVER          CLOUDY    47  32  56 SW16G22   29.85F
GEORGETOWN     CLOUDY    47  33  58 SW16      29.92F
EASTON         MOSUNNY   50  32  50 SW12G25   29.95F
ABERDEEN       PTSUNNY   52  28  40 SW16      29.89F
PATUXENT       CLOUDY    51  28  41 SW14G23   29.91F
OCEAN CITY     CLOUDY    44  37  76 SW13      29.94F
WALLOPS ISLAND CLOUDY    45  37  73 SW16      29.96F
CAMBRIDGE      CLOUDY    52  32  46 SW10      29.91F
SALISBURY      CLOUDY    45  35  68 SW12G23   29.93F

$$
PAZ001-021-NYZ056-072-MDZ011-DCZ001-301700-
OTHER NEARBY LOCATIONS

CITY           SKY/WX    TMP DP  RH WIND       PRES   REMARKS
HARRISBURG     PTSUNNY   51  32  48 NW14      29.85F
STATE COLLEGE  CLOUDY    45  28  53 W21G31    29.84S
WILLIAMSPORT   CLOUDY    46  31  55 W13       29.81S
BINGHAMTON     CLOUDY    36  30  79 W15G21    29.72S WCI  27
NEW YORK CITY  CLOUDY    42  30  62 VRB6      29.85F
BALTIMORE      CLOUDY    51  25  36 SW12      29.89F
WASHINGTON DC  CLOUDY    55  28  35 W8        29.92S

$$


USA.gov is the U.S. government's official web portal to all federal, state and local government web resources and services.